Location: �couen
(49.0206°N, 2.3831°E)
Time: 06:37:02
(UTC+00:00)

Cosmos 1758 - Pass Details

Date: 03 June 2022
Orbit: 538 x 557 km, 82.5° (Epoch: 03 July)

Event Time Altitude Azimuth Distance (km) Brightness Sun altitude
Rises 21:36:29 0° 1° (N) 2,722 7.9 -12.7°
Reaches altitude 10° 21:39:03 10° 17° (NNE) 1,827 6.6 -13.0°
Maximum altitude 21:42:12 22° 69° (ENE) 1,241 5.0 -13.2°
Enters shadow 21:44:24 15° 110° (ESE) 1,552 5.2 -13.4°
